Regional Weather Roundup
Issued by NWS Raleigh/Durham, NC

Home | Current Version | Previous Version | Text Only | Print | Product List | Glossary On
Versions: 1 2 3 4 5 6 7 8 9 10 11 12 13 14 15 16 17 18 19 20 21 22 23 24 25 26 27 28 29 30 31 32 33 34 35 36 37 38 39 40 41 42 43 44 45 46 47 48 49 50
000
ASUS42 KRAH 300210
RWRRAH
NORTH CAROLINA WEATHER ROUNDUP
NATIONAL WEATHER SERVICE RALEIGH NC
1000 PM EDT WED JUL 29 2015

NOTE: "FAIR" INDICATES FEW OR NO CLOUDS BELOW 12,000 FEET WITH NO
SIGNIFICANT WEATHER AND/OR OBSTRUCTIONS TO VISIBILITY.

NCZ001-053-055-056-065-067-300300-
WESTERN NORTH CAROLINA

CITY           SKY/WX    TMP DP  RH WIND       PRES   REMARKS
ASHEVILLE      CLEAR     75  72  90 CALM      30.09R
JEFFERSON      PTCLDY    71  70  99 CALM      30.14R
MORGANTON      PTCLDY    80  73  79 SE5       30.07R
HICKORY        MOCLDY    78  71  79 CALM      30.02R
RUTHERFORDTON  CLEAR     80  75  84 CALM      30.01S
MOUNT AIRY     MOCLDY    78  74  88 CALM      30.05R
BOONE          PTCLDY    69  69 100 CALM      30.15R FOG
$$

NCZ021-022-025-041-071-084-088-300300-
CENTRAL NORTH CAROLINA

CITY           SKY/WX    TMP DP  RH WIND       PRES   REMARKS
CHARLOTTE      MOCLDY    78  71  79 N3        30.00R
GREENSBORO     MOCLDY    79  72  79 CALM      30.00R
WINSTON-SALEM  CLOUDY    77  75  93 CALM      30.02R
RALEIGH-DURHAM PTCLDY    82  68  62 SE3       29.99R
FORT BRAGG     CLEAR     84  70  63 SE6       29.97R
FAYETTEVILLE   CLEAR     83  73  72 SE8       29.97R
BURLINGTON     MOCLDY    78  74  87 CALM      29.99R
LAURINBURG     CLEAR     82  67  60 SE3       29.97R
$$

NCZ011-015-027-028-043-044-047-080-103-300300-
NORTHEASTERN NORTH CAROLINA

CITY           SKY/WX    TMP DP  RH WIND       PRES   REMARKS
ROCKY MT-WILSO CLEAR     80  69  69 SE3       29.98R
GREENVILLE     CLEAR     81  72  74 SE3       30.01R
WASHINGTON     CLEAR     77  71  82 E5        29.99S
ELIZABETH CITY CLEAR     79  71  76 SE3       30.00R
MANTEO         PTCLDY    78  70  76 SE5       30.01R
CAPE HATTERAS  PTCLDY    80  75  84 E10       29.98R
$$

NCZ078-087-090-091-093-098-101-300300-
SOUTHEASTERN NORTH CAROLINA

CITY           SKY/WX    TMP DP  RH WIND       PRES   REMARKS
LUMBERTON      CLEAR     83  71  67 SE6       29.97R
GOLDSBORO      CLEAR     80  70  71 SE3       29.96R
KENANSVILLE    CLEAR     74  69  84 CALM      30.00R
NEW BERN       CLEAR     79  71  76 E3        29.99R
CHERRY POINT   CLEAR     79  73  82 NE6       29.99R
BEAUFORT       CLEAR     78  76  93 NE5       29.97R
JACKSONVILLE   CLEAR     80  70  71 E8        29.97R
WILMINGTON     CLEAR     78  73  84 E6        29.97R
$$




USA.gov is the U.S. government's official web portal to all federal, state and local government web resources and services.